Regional Weather Roundup
Issued by NWS San Angelo, TX

Home | Current Version | Previous Version | Text Only | Print | Product List | Glossary On
Versions: 1 2 3 4 5 6 7 8 9 10 11 12 13 14 15 16 17 18 19 20 21 22 23 24 25 26 27 28 29 30 31 32 33 34 35 36 37 38 39 40 41 42 43 44 45 46 47 48 49 50
000
ASUS44 KSJT 120110
RWRSJT
WEST CENTRAL TEXAS REGIONAL WEATHER ROUNDUP
NATIONAL WEATHER SERVICE SAN ANGELO TX
700 PM CST MON DEC 11 2017

NOTE: "FAIR" INDICATES FEW OR NO CLOUDS BELOW 12,000 FEET WITH NO
SIGNIFICANT WEATHER AND/OR OBSTRUCTIONS TO VISIBILITY.

TXZ049-054-064>066-071>073-076>078-098-099-113-114-127-128-139-140-
154-155-168>170-120200
...LOCATIONS ACROSS WEST CENTRAL TEXAS...

CITY           SKY/WX    TMP DP  RH WIND       PRES   REMARKS
SAN ANGELO     PTCLDY    52  27  38 W5        30.22R
ABILENE        CLEAR     56  18  22 S8        30.20R
DYESS AFB      CLEAR     57  22  26 SW6       30.19R
JUNCTION       PTCLDY    56  30  37 SW3       30.23R
SWEETWATER     CLEAR     57  20  23 SW9       30.24R
BROWNWOOD      CLEAR     48  16  27 CALM      30.20R
COLEMAN        CLEAR     58  19  22 CALM      30.20R
SONORA         PTCLDY    52  32  46 CALM      30.28R
OZONA          FAIR      48  28  46 CALM      30.27R
BRADY          NOT AVBL
$$

TEXAS PANHANDLE/OKLAHOMA PANHANDLE

CITY           SKY/WX    TMP DP  RH WIND       PRES   REMARKS
AMARILLO       CLOUDY    41  12  30 N9        30.32R WCI  35
BORGER         CLEAR     53  13  20 N3        30.32R
CANADIAN       CLEAR     46  11  24 CALM      30.28R
DALHART        CLEAR     48  11  22 N10       30.36R
DUMAS          CLEAR     42  12  28 N5        30.34R WCI  40
GUYMON         NOT AVBL
HEREFORD       CLOUDY    43  14  30 MISG      30.33R
PAMPA          CLEAR     46  12  25 N10       30.32R
PERRYTON       CLEAR     47   9  21 N9        30.29R
$$

SOUTHERN PANHANDLE/SOUTH PLAINS/ROLLING PLAINS

CITY           SKY/WX    TMP DP  RH WIND       PRES   REMARKS
LUBBOCK        CLOUDY    49   7  18 NE9       30.27R
SNYDER         CLEAR     57  22  25 SW6       30.23R
CHILDRESS      CLOUDY    53  13  20 N6        30.26R
SEMINOLE       CLOUDY    51  15  24 SW9       30.26R
$$

PERMIAN BASIN

CITY           SKY/WX    TMP DP  RH WIND       PRES   REMARKS
MIDLAND        CLEAR     49  27  42 W7        30.24R
ODESSA         CLEAR     52  26  36 W5        30.25R
WINK           CLOUDY    50  28  42 N3        30.25R
$$

FAR WEST/SOUTHWEST MOUNTAINS/TRANS PECOS

CITY           SKY/WX    TMP DP  RH WIND       PRES   REMARKS
ALPINE         PTCLDY    49  31  49 SW9       30.36R
DRYDEN           N/A     56  36  47 W10       30.23R
EL PASO        CLOUDY    52  23  32 VRB3      30.31R
FORT STOCKTON  PTCLDY    54  35  48 CALM      30.27R
GUADALUPE PASS CLOUDY    49  22  34 SW14      30.34R
MARFA          CLOUDY    44  28  53 SW7       30.34R
PECOS          CLOUDY    48  37  63 W7        30.25S
$$

DALLAS/FORT WORTH METROPLEX

CITY           SKY/WX    TMP DP  RH WIND       PRES   REMARKS
DFW AIRPORT    PTCLDY    72  15  11 W13       30.11R
FTW MEACHAM    CLEAR     63  19  18 NW8       30.13R
DAL-EXECUTIVE  CLEAR     63  20  19 NW7       30.12R
GRAND PRAIRIE  CLEAR     65  18  16 W3        30.14R
ADDISON        NOT AVBL
MESQUITE       NOT AVBL
LANCASTER      CLOUDY    61  19  20 W3        30.13R
$$

NORTH CENTRAL TEXAS

CITY           SKY/WX    TMP DP  RH WIND       PRES   REMARKS
SHRMAN/DENISON CLEAR     56  20  24 W6        30.14R
GAINESVILLE    CLEAR     58  18  21 NW9       30.16R
BRIDGEPORT     CLEAR     60  22  23 W5        30.18R
DENTON         CLEAR     62  18  18 W7        30.13R
WAXAHACHIE     CLOUDY    62  23  22 W3        30.14R
GRANBURY       CLOUDY    62  19  18 SW7       30.16R
$$

WESTERN NORTH TEXAS

CITY           SKY/WX    TMP DP  RH WIND       PRES   REMARKS
WICHITA FALLS  CLEAR     56  17  21 NW9       30.18R
VERNON         CLEAR     52   4  14 NW6       30.22R
BRECKENRIDGE   CLEAR     61  13  15 NW5       30.18R
COMANCHE       CLEAR     62  20  20 W7        30.19R
$$

CENTRAL AND SOUTH CENTRAL TEXAS

CITY           SKY/WX    TMP DP  RH WIND       PRES   REMARKS
AUSTIN/BERGSTM MOCLDY    58  35  42 SW6       30.19R
WACO           CLEAR     56  30  37 SW9       30.17R
HILLSBORO      CLOUDY    56  24  28 CALM      30.14R
TEMPLE         CLEAR     58  30  34 SW7       30.19R
KILLEEN-GRAY   PTCLDY    62  29  28 SW8       30.17R
FORT HOOD      CLEAR     61  30  31 CALM      30.15R
GEORGETOWN     CLEAR     57  38  48 W7        30.20R
LAGO VISTA     FAIR      62  33  33 SW3       30.20S
SAN MARCOS     PTCLDY    54  38  54 CALM      30.20S
NEW BRAUNFELS  MOCLDY    57  37  47 SW6       30.19S
RANDOLPH AFB   MOCLDY    63  34  34 SW3       30.20S
SAN ANTONIO    MOCLDY    62  35  36 SW7       30.21S
STINSON        PTCLDY    60  38  43 SW3       30.20R
PLEASANTON     NOT AVBL
LA GRANGE      PTCLDY    58  36  43 CALM      30.18S
GIDDINGS       CLEAR     60  31  33 SW3       30.20R
$$

EAST TEXAS

CITY           SKY/WX    TMP DP  RH WIND       PRES   REMARKS
PARIS          CLEAR     61  21  21 W10       30.09R
CLARKSVILLE    NOT AVBL
TYLER          CLEAR     60  22  23 SW8       30.11R
LONGVIEW       CLEAR     63  27  25 SW9       30.09R
PALESTINE      CLEAR     61  26  25 S5        30.15R
NACOGDOCHES    CLEAR     57  42  57 SW5       30.14R
$$

TEXAS HILL COUNTRY AND EDWARDS PLATEAU

CITY           SKY/WX    TMP DP  RH WIND       PRES   REMARKS
LLANO          PTCLDY    50  32  50 CALM      30.23R
HORSESHOE BAY  FAIR      55  33  43 CALM      30.19S
KERRVILLE      CLOUDY    51  34  51 CALM      30.22S
FREDERICKSBRG  PTCLDY    47  34  60 CALM      30.22R
ROCKSPRINGS    NOT AVBL
HONDO          MOCLDY    57  36  45 SW6       30.22
UVALDE         MOCLDY    55  39  54 W3        30.24R
DEL RIO        MOCLDY    55  43  63 CALM      30.23R
$$

SOUTHEAST TEXAS

CITY           SKY/WX    TMP DP  RH WIND       PRES   REMARKS
COLLEGE STN    CLOUDY    59  34  39 SW7       30.17R
CALDWELL       CLOUDY    61  31  31 SW5       30.19R
CROCKETT         N/A     46  39  76 CALM      30.18R
BRENHAM        CLEAR     62  31  30 SW3       30.20R
HUNTSVILLE     CLOUDY    60  33  36 S3        30.15S
CONROE         CLEAR     48  42  80 CALM      30.17R
HOUSTON BUSH   PTCLDY    64  35  34 SW6       30.18R
HOUSTON HOBBY  PTCLDY    57  37  47 SW5       30.19R
PERLAND        CLEAR     56  38  50 CALM      30.20R
WHARTON        PTCLDY    57  43  60 S7        30.21R
$$

THE UPPER TEXAS COAST

CITY           SKY/WX    TMP DP  RH WIND       PRES   REMARKS
ORANGE         CLEAR     56  49  79 SW5       30.19R
PORT ARTHUR    CLEAR     52  48  86 SW7       30.17R
GALVESTON      CLEAR     61  56  83 SW10      30.20R
ANGLETON       CLEAR     57  44  62 SW6       30.21R
BAY CITY       CLEAR     52  47  83 S6        30.21S
$$

TEXAS COASTAL BEND, RIO GRANDE PLAINS DEEP SOUTH TEXAS

CITY           SKY/WX    TMP DP  RH WIND       PRES   REMARKS
VICTORIA       CLOUDY    56  37  49 SW7       30.21S
BEEVILLE       FAIR      64  35  34 W6        30.23R
ROCKPORT       PTCLDY    57  47  69 S3        30.23R
PORT ARANSAS   NOT AVBL
PORT LAVACA    CLEAR     55  47  74 SW6       30.22R
CORPUS CHRISTI CLOUDY    59  50  72 SE8       30.23R
KINGSVILLE NAS CLOUDY    59  46  62 S9        30.23R
COTULLA        MOCLDY    60  38  43 SW3       30.23S
LAREDO         CLOUDY    62  41  46 CALM      30.24
BROWNSVILLE    PTCLDY    60  44  55 CALM      30.26R
PORT ISABEL    CLOUDY    57  46  66 CALM      30.24R
HEBBRONVILLE   CLOUDY    61  35  38 CALM      30.25R
MCALLEN        PTCLDY    61  49  64 CALM      30.26R
WESLACO        CLOUDY    60  44  56 CALM      30.25R
FALFURRIAS     CLOUDY    62  41  47 S5        30.23R
EDINBURG       NOT AVBL
$$




USA.gov is the U.S. government's official web portal to all federal, state and local government web resources and services.